Home > Time Zones > World Clock > Weather > Iran > Yazd > Past weeks

Flag for Iran Weather past 2 weeks in Yazd, Iran

Now
93 °F

Passing clouds.


Feels Like: 89 °F
Forecast: 56 / 76 °F
Wind: 16 mph from West

Location: Yazd Airport

Current Time: Apr 25, 2015 at 1:32:12 PM

Latest Report: Apr 25, 2015 at 1:00 PM


Visibility: 5 mi

Pressure: 29.95 "Hg

Humidity: 6%

Dew point: 18 °F

Location of YazdLocation

Historic Weather in Yazd — Graph

°F

Yazd temperature yesterday

Maximum temperature yesterday: 95 °F (at 3:30 PM)
Minimum temperature yesterday: 66 °F (at 5:55 AM)
Average temperature yesterday: 83 °F

Past Weeks' High & Low Weather Summary

 TemperatureHumidityPressure
High95 °F (Apr 24, 3:30 PM)94% (Apr 19, 4:30 AM)30.27 "Hg (Apr 19, 4:30 AM)
Low52 °F (Apr 19, 4:30 AM)5% (Apr 10, 4:00 PM)29.92 "Hg (Apr 13, 4:30 PM)
Average76 °F20%30.06 "Hg
* Reported Apr 10 11:30 AM — Apr 25 12:00 Noon, Yazd, Weather by CustomWeather, © 2015

Note: Actual official high and low records may vary slightly from our data, if they occured in-between our weather recording intervals... More about our weather records

Advertising

Yazd weather history for previous 24 hours

 ConditionsComfort  
Time TempWeatherWind HumidityBarometerVisibility
12:00 PM
Sat, Apr 25
90 °FPassing clouds.14 mph8%29.98 "Hg5 mi
11:30 AM90 °FPassing clouds.18 mph7%30.01 "Hg5 mi
11:00 AM88 °FPassing clouds.12 mph9%30.01 "Hg5 mi
10:30 AM88 °FPassing clouds.14 mph10%30.01 "Hg5 mi
10:00 AM86 °FClear.18 mph11%30.01 "Hg5 mi
9:30 AM84 °FClear.16 mph12%30.01 "Hg5 mi
9:00 AM84 °FPassing clouds.14 mph12%30.01 "Hg5 mi
8:30 AM79 °FClear.7 mph16%30.01 "Hg5 mi
8:00 AM77 °FClear.5 mph17%30.01 "Hg5 mi
7:30 AM73 °FClear.5 mph19%30.01 "Hg10 mi
7:00 AM73 °FClear.5 mph17%30.01 "Hg5 mi
6:30 AM73 °FClear.5 mph19%30.01 "Hg4 mi
6:00 AM77 °FClear.5 mph17%29.98 "Hg4 mi
5:30 AM75 °FClear.5 mph18%29.98 "Hg2 mi
3:30 AM75 °FClear.2 mph18%29.98 "Hg2 mi
2:30 AM75 °FClear.5 mph18%30.01 "Hg3 mi
1:20 AM75 °FClear.5 mph18%30.01 "Hg3 mi
12:30 AM75 °FClear.5 mph18%30.04 "Hg3 mi
12:00 AM77 °FClear.7 mph15%30.04 "Hg3 mi
11:30 PM
Fri, Apr 24
77 °FClear.5 mph15%30.04 "Hg3 mi
11:00 PM81 °FClear.7 mph14%30.04 "Hg3 mi
10:30 PM81 °FClear.7 mph14%30.04 "Hg3 mi
10:00 PM82 °FClear.7 mph13%30.04 "Hg3 mi
9:30 PM84 °FClear.7 mph12%30.04 "Hg3 mi
9:00 PM84 °FClear.12 mph11%30.01 "Hg3 mi
8:30 PM86 °FSunny.12 mph11%30.01 "Hg3 mi
8:00 PM88 °FClear.14 mph11%29.98 "Hg5 mi
7:30 PM90 °FPassing clouds.12 mph9%29.98 "Hg4 mi
7:00 PM90 °FPassing clouds.12 mph9%29.98 "Hg4 mi
6:30 PM91 °FPassing clouds.9 mph8%29.95 "Hg3 mi
6:00 PM91 °FScattered clouds.12 mph8%29.95 "Hg2 mi
5:30 PM93 °FScattered clouds.16 mph8%29.95 "Hg2 mi
4:30 PM93 °FScattered clouds.16 mph7%29.95 "Hg2 mi
4:00 PM93 °FScattered clouds.9 mph7%29.95 "Hg2 mi
3:30 PM95 °FScattered clouds.14 mph6%29.98 "Hg2 mi
2:30 PM93 °FScattered clouds.14 mph7%30.01 "Hg2 mi
1:30 PM93 °FPassing clouds.18 mph7%30.04 "Hg2 mi
Weather by CustomWeather, © 2015

See weather overviewHow to use our weather pages